Weather History for Stuart, FL

Change the Weather History Date:

Thursday, July 11, 2013

  Actual Average Record
Temperature  
Mean Temperature 82 °F -  
Max Temperature 89 °F 90 °F 95 °F (1964)
Min Temperature 75 °F 73 °F 62 °F (1971)
Cooling Degree Days 17    
Growing Degree Days 32 (Base 50)    
Moisture  
Dew Point 73 °F    
Average Humidity 83    
Maximum Humidity 94    
Minimum Humidity 62    
Precipitation  
Precipitation 0.00 in - - ()
Sea Level Pressure  
Sea Level Pressure 30.02 in    
Wind  
Wind Speed 2 mph (South)    
Max Wind Speed 16 mph    
Max Gust Speed 22 mph    
Visibility 9 miles    
Events Rain , Thunderstorm    
Averages and records for this station are not official NWS values.
T = Trace of Precipitation, MM = Missing Value Source: NWS Daily Summary

Daily Weather History Graph

Daily Weather History Graph

Search for Another Location

Airport:

Trip Planner

Search our weather history database for the weather conditions in past years. The results will help you decide how hot, cold, wet, or windy it might be!

Date:

Astronomy

Jul. 11, 2013 Rise Set
Actual Time 6:34 AM EDT 8:18 PM EDT
Civil Twilight 6:08 AM EDT 8:44 PM EDT
Nautical Twilight 5:36 AM EDT 9:15 PM EDT
Astronomical Twilight 5:03 AM EDT 9:48 PM EDT
Moon 9:30 AM EDT (7/11) 10:22 PM EDT (7/11)
Length of Visible Light 14h 36m
Length of Day
13h 44m
Waxing Crescent, 10% of the Moon is Illuminated
Jul 11
Waxing Crescent
Jul 15
First Quarter
Jul 22
Full
Jul 29
Last Quarter
Aug 6
New

Hourly Weather History & Observations

Time (EDT) Temp. Heat Index Dew Point Humidity Pressure Visibility Wind Dir Wind Speed Gust Speed Precip Events Conditions
12:15 AM 78.8 °F - 73.4 °F 83% 30.07 in 10.0 mi Calm Calm - N/A   Clear
12:35 AM 78.8 °F - 73.4 °F 83% 30.07 in 10.0 mi South 3.5 mph - N/A   Clear
12:55 AM 78.8 °F - 73.4 °F 83% 30.06 in 10.0 mi Calm Calm - N/A   Clear
1:15 AM 77.0 °F - 73.4 °F 89% 30.05 in 10.0 mi Calm Calm - N/A   Clear
1:35 AM 77.0 °F - 73.4 °F 89% 30.05 in 10.0 mi Calm Calm - N/A   Clear
1:55 AM 77.0 °F - 73.4 °F 89% 30.05 in 10.0 mi Calm Calm - N/A   Clear
2:15 AM 77.0 °F - 73.4 °F 89% 30.04 in 10.0 mi Calm Calm - N/A   Scattered Clouds
2:35 AM 77.0 °F - 73.4 °F 89% 30.04 in 10.0 mi Calm Calm - N/A   Clear
2:55 AM 77.0 °F - 73.4 °F 89% 30.03 in 10.0 mi Calm Calm - N/A   Clear
3:15 AM 77.0 °F - 73.4 °F 89% 30.03 in 10.0 mi Calm Calm - N/A   Scattered Clouds
3:35 AM 77.0 °F - 73.4 °F 89% 30.03 in 10.0 mi Calm Calm - N/A   Scattered Clouds
3:55 AM 77.0 °F - 73.4 °F 89% 30.02 in 10.0 mi Calm Calm - N/A   Clear
4:15 AM 77.0 °F - 73.4 °F 89% 30.02 in 10.0 mi Calm Calm - N/A   Clear
4:35 AM 77.0 °F - 73.4 °F 89% 30.02 in 10.0 mi Calm Calm - N/A   Clear
4:55 AM 77.0 °F - 73.4 °F 89% 30.03 in 10.0 mi Calm Calm - N/A   Clear
5:15 AM 77.0 °F - 73.4 °F 89% 30.03 in 10.0 mi Calm Calm - N/A   Clear
5:35 AM 75.2 °F - 73.4 °F 94% 30.03 in 10.0 mi Calm Calm - N/A   Clear
5:55 AM 75.2 °F - 73.4 °F 94% 30.04 in 10.0 mi Calm Calm - N/A   Clear
6:15 AM 75.2 °F - 73.4 °F 94% 30.03 in 10.0 mi Calm Calm - N/A   Clear
6:47 AM 75.2 °F - 73.4 °F 94% 30.03 in 10.0 mi Calm Calm - N/A   Scattered Clouds
7:47 AM 80.6 °F 86.2 °F 75.2 °F 84% 30.03 in 10.0 mi SSE 6.9 mph - N/A   Scattered Clouds
8:50 AM 82.4 °F 89.5 °F 75.2 °F 79% 30.03 in 7.0 mi South 5.8 mph - N/A   Partly Cloudy
9:47 AM 84.2 °F 92.3 °F 75.2 °F 74% 30.03 in 7.0 mi SSW 5.8 mph - N/A   Scattered Clouds
10:47 AM 86.0 °F 95.1 °F 75.2 °F 70% 30.03 in 7.0 mi SSW 4.6 mph - N/A   Mostly Cloudy
11:47 AM 86.0 °F 95.1 °F 75.2 °F 70% 30.03 in 7.0 mi East 11.5 mph - N/A   Mostly Cloudy
12:47 PM 87.8 °F 97.6 °F 75.2 °F 66% 30.03 in 7.0 mi East 12.7 mph - N/A   Mostly Cloudy
1:47 PM 87.8 °F 95.6 °F 73.4 °F 62% 30.01 in 7.0 mi SE 11.5 mph - N/A   Mostly Cloudy
2:47 PM 89.6 °F 99.8 °F 75.2 °F 62% 29.99 in 7.0 mi SE 13.8 mph 16.1 mph N/A   Mostly Cloudy
3:47 PM 84.2 °F 92.3 °F 75.2 °F 74% 29.99 in 7.0 mi SE 16.1 mph 21.9 mph N/A   Mostly Cloudy
4:47 PM 77.0 °F - 69.8 °F 78% 30.01 in 7.0 mi Calm Calm - N/A Rain , Thunderstorm Light Thunderstorms and Rain
5:47 PM 80.6 °F 85.4 °F 73.4 °F 79% 29.99 in 7.0 mi Calm Calm - N/A   Mostly Cloudy
6:47 PM 80.6 °F 85.4 °F 73.4 °F 79% 29.97 in 7.0 mi Calm Calm - N/A   Mostly Cloudy
8:15 PM 78.8 °F - 71.6 °F 78% 29.97 in 10.0 mi SW 4.6 mph - N/A   Clear
8:35 PM 78.8 °F - 69.8 °F 74% 29.98 in 10.0 mi SW 3.5 mph - N/A   Clear
8:55 PM 77.0 °F - 69.8 °F 78% 29.98 in 10.0 mi SW 3.5 mph - N/A   Clear
9:15 PM 77.0 °F - 69.8 °F 78% 29.99 in 10.0 mi Calm Calm - N/A   Clear
9:35 PM 77.0 °F - 71.6 °F 83% 30.00 in 10.0 mi Calm Calm - N/A   Clear
9:55 PM 77.0 °F - 71.6 °F 83% 30.00 in 10.0 mi Calm Calm - N/A   Clear
10:15 PM 77.0 °F - 71.6 °F 83% 30.00 in 10.0 mi Calm Calm - N/A   Clear
10:35 PM 77.0 °F - 71.6 °F 83% 30.00 in 10.0 mi Calm Calm - N/A   Clear
10:55 PM 77.0 °F - 71.6 °F 83% 30.00 in 10.0 mi Calm Calm - N/A   Clear
11:15 PM 77.0 °F - 71.6 °F 83% 30.00 in 10.0 mi Calm Calm - N/A   Clear
11:35 PM 77.0 °F - 71.6 °F 83% 29.99 in 10.0 mi Calm Calm - N/A   Clear
11:55 PM 77.0 °F - 71.6 °F 83% 29.99 in 10.0 mi SW 3.5 mph - N/A   Clear